sat.trackr.live / text

‹ back to catalog

STARLINK-31147

NORAD 58681 · 2023-211Q

PAYLOAD ACTIVE UNKNOWN

§ Identity

Operator
Country
US
Launch date
2023-12-29
Launch site
AFETR
Launch vehicle
Mass (kg)
RCS (m²)

Purposes: comms

External: N2YO · Heavens-Above · Gunter

§ Orbital elements

Epoch: 2026-09-20T03:40:31.734048Z

Period
94.27 min
Inclination
43.0010°
Eccentricity
0.0001006
Mean motion
15.27573689 rev/d
Perigee alt
482.4 km
Apogee alt
483.8 km
Semi-major
6,861.2 km
B*
-5.0592e-6
RAAN
67.1917°
Arg perigee
274.0592°
Mean anomaly
86.0144°
Rev number
15,220

§ Raw data

STARLINK-311471 58681U 23211Q   26263.15314507 -.00000401  00000+0 -50592-5 0  99942 58681  43.0010  67.1917 0001006 274.0592  86.0144 15.27573689152201

JSON: /api/v1/satellites/58681 · /tle

For live sub-satellite position, see the globe view (requires WebGL).

§ Visibility from observer

Set your observer location to see the next 7 days of passes ≥ 10°. The values pass through the URL so the page stays shareable.

No JS? Fill the form by hand. The geolocation button needs JavaScript.